Location: Oriwa
(40.7500°S, 175.3333°E)
Time: 14:12:04
(UTC+00:00)

SL-4 R/B - Pass Details

Date: 03 February 2023
Orbit: 423 x 637 km, 51.6° (Epoch: 31 March)

Event Time Altitude Azimuth Distance (km) Brightness Sun altitude
Exits shadow 16:03:07 21° 280° (W) 1,460 3.6 -14.8°
Maximum altitude 16:06:07 53° 211° (SSW) 795 2.8 -14.4°
Drops below altitude 10° 16:10:43 10° 133° (SE) 2,018 6.3 -13.7°
Sets 16:13:03 0° 127° (SE) 2,903 7.8 -13.3°
